^^
Saratoga-Weather Station Historical Data
Daily Summary for February 7, 2020 Units:  English    Metric   Both
Daily Weekly Monthly Yearly Custom
  High: Low: Average:
Temperature: 66.2 °F 48.4 °F 56.7 °F
Dew Point: 52.2 °F 41.9 °F 46.6 °F
Humidity: 86% 51% 70%
Wind Speed: 10.1mph 0mph 2.6mph
Wind Gust: 14mph - -
Wind- - West
Pressure: 29.9 in 29.6 in -
Precipitation: 0 in    
Historical Graphs
 
 
Tabular Data for February 7, 2020
Time Temperature Dew Point Pressure Wind Wind Speed Wind Gust Humidity Rainfall Rate (Hourly) solar
00:03 52.2 °F 46.2 °F 29.6 in Calm   1 mph 80% 0 in 0 W/m2
00:08 52.2 °F 46.6 °F 29.6 in Calm     81% 0 in 0 W/m2
00:13 52.2 °F 46.6 °F 29.6 in Calm     81% 0 in 0 W/m2
00:18 52.2 °F 46.6 °F 29.6 in Calm   1 mph 81% 0 in 0 W/m2
00:23 52.2 °F 45.9 °F 29.6 in Calm     79% 0 in 0 W/m2
00:28 52.3 °F 46 °F 29.6 in Calm   1 mph 79% 0 in 0 W/m2
00:33 52.5 °F 45.9 °F 29.6 in Calm     78% 0 in 0 W/m2
00:38 52.9 °F 45.5 °F 29.6 in NNE 0.9 mph 2 mph 76% 0 in 0 W/m2
00:43 53.1 °F 46 °F 29.7 in ENE 2 mph 2 mph 77% 0 in 0 W/m2
00:48 53.2 °F 45.9 °F 29.6 in Calm   2 mph 76% 0 in 0 W/m2
00:53 53.2 °F 46.6 °F 29.6 in Calm   1 mph 78% 0 in 0 W/m2
00:58 53.1 °F 46 °F 29.7 in Calm   1 mph 77% 0 in 0 W/m2
01:03 53.1 °F 45.7 °F 29.6 in SW 0.9 mph 2 mph 76% 0 in 0 W/m2
01:08 53.1 °F 45.3 °F 29.7 in Calm     75% 0 in 0 W/m2
01:13 53.1 °F 45.3 °F 29.7 in West 0.9 mph 3 mph 75% 0 in 0 W/m2
01:18 53.2 °F 44.8 °F 29.7 in West 2 mph 2 mph 73% 0 in 0 W/m2
01:23 53.8 °F 46 °F 29.7 in Calm   1 mph 75% 0 in 0 W/m2
01:28 53.8 °F 45.3 °F 29.7 in West 2 mph 3 mph 73% 0 in 0 W/m2
01:33 54.1 °F 45.3 °F 29.7 in West 2.9 mph 4 mph 72% 0 in 0 W/m2
01:38 54.3 °F 45.5 °F 29.7 in NW 2.9 mph 3 mph 72% 0 in 0 W/m2
01:43 54.3 °F 45.5 °F 29.7 in West 2.9 mph 6 mph 72% 0 in 0 W/m2
01:48 54.1 °F 45.3 °F 29.7 in West 2.9 mph 7 mph 72% 0 in 0 W/m2
01:53 54.1 °F 45.3 °F 29.7 in West 4 mph 9 mph 72% 0 in 0 W/m2
01:58 54 °F 45.1 °F 29.7 in NW 0.9 mph 7 mph 72% 0 in 0 W/m2
02:03 54 °F 45.1 °F 29.7 in West 4 mph 6 mph 72% 0 in 0 W/m2
02:08 53.8 °F 45.3 °F 29.7 in WNW 2.9 mph 4 mph 73% 0 in 0 W/m2
02:13 53.4 °F 45 °F 29.7 in West 2.9 mph 7 mph 73% 0 in 0 W/m2
02:18 53.2 °F 45.1 °F 29.7 in West 2 mph 2 mph 74% 0 in 0 W/m2
02:23 53.1 °F 45 °F 29.7 in West 2 mph 4 mph 74% 0 in 0 W/m2
02:28 52.9 °F 45.1 °F 29.7 in WNW 2.9 mph 4 mph 75% 0 in 0 W/m2
02:33 52.5 °F 44.8 °F 29.7 in West 2.9 mph 3 mph 75% 0 in 0 W/m2
02:38 52.3 °F 44.6 °F 29.7 in WNW 2 mph 4 mph 75% 0 in 0 W/m2
02:43 52.2 °F 44.8 °F 29.7 in West 2.9 mph 4 mph 76% 0 in 0 W/m2
02:48 52.2 °F 44.8 °F 29.7 in WNW 0.9 mph 3 mph 76% 0 in 0 W/m2
02:53 51.8 °F 44.8 °F 29.7 in West 0.9 mph 4 mph 77% 0 in 0 W/m2
02:58 51.6 °F 44.6 °F 29.7 in WNW 2 mph 3 mph 77% 0 in 0 W/m2
03:03 51.4 °F 44.8 °F 29.7 in WNW 2 mph 4 mph 78% 0 in 0 W/m2
03:08 51.3 °F 44.6 °F 29.7 in WSW 2 mph 2 mph 78% 0 in 0 W/m2
03:13 51.1 °F 44.4 °F 29.7 in West 0.9 mph 6 mph 78% 0 in 0 W/m2
03:19 51.1 °F 44.4 °F 29.7 in West 2 mph 2 mph 78% 0 in 0 W/m2
03:24 51.1 °F 44.4 °F 29.7 in WNW 0.9 mph 4 mph 78% 0 in 0 W/m2
03:29 51.1 °F 44.4 °F 29.7 in NW 0.9 mph 3 mph 78% 0 in 0 W/m2
03:34 50.7 °F 44.1 °F 29.7 in Calm   1 mph 78% 0 in 0 W/m2
03:39 50.4 °F 44.1 °F 29.7 in NW 0.9 mph 3 mph 79% 0 in 0 W/m2
03:44 50 °F 44.1 °F 29.7 in NW 2 mph 2 mph 80% 0 in 0 W/m2
03:49 49.6 °F 44.1 °F 29.7 in WNW 2.9 mph 3 mph 81% 0 in 0 W/m2
03:54 49.5 °F 43.9 °F 29.7 in WNW 2.9 mph 3 mph 81% 0 in 0 W/m2
03:59 49.6 °F 44.1 °F 29.7 in WNW 0.9 mph 5 mph 81% 0 in 0 W/m2
04:04 49.8 °F 43.9 °F 29.7 in West 2.9 mph 4 mph 80% 0 in 0 W/m2
04:09 50 °F 44.1 °F 29.7 in West 2 mph 3 mph 80% 0 in 0 W/m2
04:14 50.2 °F 44.2 °F 29.7 in WNW 0.9 mph 2 mph 80% 0 in 0 W/m2
04:19 50 °F 44.1 °F 29.7 in West 2 mph 4 mph 80% 0 in 0 W/m2
04:24 49.8 °F 43.9 °F 29.7 in West 0.9 mph 2 mph 80% 0 in 0 W/m2
04:29 49.6 °F 44.1 °F 29.7 in West 0.9 mph 3 mph 81% 0 in 0 W/m2
04:34 49.5 °F 43.9 °F 29.7 in NW 2 mph 3 mph 81% 0 in 0 W/m2
04:39 49.3 °F 44.1 °F 29.7 in WNW 0.9 mph 2 mph 82% 0 in 0 W/m2
04:44 48.9 °F 43.7 °F 29.7 in Calm   1 mph 82% 0 in 0 W/m2
04:49 48.7 °F 43.9 °F 29.7 in Calm   3 mph 83% 0 in 0 W/m2
04:54 48.6 °F 43.7 °F 29.7 in NW 0.9 mph 3 mph 83% 0 in 0 W/m2
04:59 48.4 °F 43.7 °F 29.7 in West 2.9 mph 3 mph 84% 0 in 0 W/m2
05:04 48.4 °F 43.7 °F 29.7 in WSW 0.9 mph 4 mph 84% 0 in 0 W/m2
05:09 48.4 °F 43.7 °F 29.7 in WSW 0.9 mph 4 mph 84% 0 in 0 W/m2
05:14 48.4 °F 43.5 °F 29.7 in SW 2 mph 2 mph 83% 0 in 0 W/m2
05:20 48.4 °F 43.5 °F 29.7 in WSW 2 mph 4 mph 83% 0 in 0 W/m2
05:25 48.4 °F 43.2 °F 29.7 in West 2 mph 2 mph 82% 0 in 0 W/m2
05:30 48.6 °F 43 °F 29.7 in WSW 2 mph 4 mph 81% 0 in 0 W/m2
05:35 48.4 °F 42.4 °F 29.7 in WSW 2 mph 4 mph 80% 0 in 5 W/m2
05:40 48.6 °F 42.6 °F 29.7 in West 6 mph 6 mph 80% 0 in 7 W/m2
05:45 48.7 °F 42.4 °F 29.7 in WSW 0.9 mph 2 mph 79% 0 in 9 W/m2
05:50 48.7 °F 42.4 °F 29.7 in NW 0.9 mph 3 mph 79% 0 in 11 W/m2
05:55 48.7 °F 42.4 °F 29.7 in West 0.9 mph 4 mph 79% 0 in 12 W/m2
06:00 48.7 °F 42.4 °F 29.7 in NW 2 mph 2 mph 79% 0 in 16 W/m2
06:05 48.9 °F 42.6 °F 29.7 in WNW 2 mph 6 mph 79% 0 in 18 W/m2
06:10 48.9 °F 42.4 °F 29.7 in Calm   4 mph 78% 0 in 19 W/m2
06:15 48.9 °F 42.6 °F 29.7 in Calm   2 mph 79% 0 in 21 W/m2
06:20 48.7 °F 42.4 °F 29.7 in West 0.9 mph 4 mph 79% 0 in 23 W/m2
06:25 48.7 °F 42.8 °F 29.7 in SW 0.9 mph 6 mph 80% 0 in 25 W/m2
06:30 48.7 °F 42.4 °F 29.7 in SW 4 mph 5 mph 79% 0 in 26 W/m2
06:35 48.9 °F 42.6 °F 29.7 in Calm   3 mph 79% 0 in 28 W/m2
06:40 49.1 °F 42.6 °F 29.7 in WNW 2.9 mph 3 mph 78% 0 in 28 W/m2
06:45 49.5 °F 41.9 °F 29.7 in West 2 mph 5 mph 75% 0 in 30 W/m2
06:50 49.6 °F 42.1 °F 29.7 in WNW 2 mph 4 mph 75% 0 in 32 W/m2
06:55 49.8 °F 42.3 °F 29.7 in WSW 0.9 mph 4 mph 75% 0 in 32 W/m2
07:00 50 °F 42.1 °F 29.7 in WNW 4 mph 4 mph 74% 0 in 33 W/m2
07:05 50.2 °F 42.3 °F 29.7 in WSW 2 mph 3 mph 74% 0 in 33 W/m2
07:10 50.4 °F 42.1 °F 29.7 in WNW 4 mph 5 mph 73% 0 in 35 W/m2
07:15 50.4 °F 42.1 °F 29.7 in NW 0.9 mph 1 mph 73% 0 in 35 W/m2
07:20 50.5 °F 42.3 °F 29.7 in Calm   5 mph 73% 0 in 35 W/m2
07:25 50.5 °F 42.3 °F 29.7 in Calm   2 mph 73% 0 in 39 W/m2
07:30 50.7 °F 42.4 °F 29.7 in SSW 2 mph 7 mph 73% 0 in 49 W/m2
07:35 50.9 °F 42.6 °F 29.7 in WNW 2 mph 3 mph 73% 0 in 102 W/m2
07:40 51.1 °F 42.8 °F 29.7 in NNW 2 mph 2 mph 73% 0 in 237 W/m2
07:45 51.4 °F 43.2 °F 29.7 in West 2 mph 4 mph 73% 0 in 250 W/m2
07:50 52 °F 43.2 °F 29.7 in WNW 0.9 mph 3 mph 72% 0 in 265 W/m2
07:55 52.3 °F 43.2 °F 29.7 in WSW 2 mph 3 mph 71% 0 in 278 W/m2
08:00 52.7 °F 43.5 °F 29.7 in NNW 2 mph 4 mph 71% 0 in 290 W/m2
08:05 52.9 °F 43.3 °F 29.7 in SSW 2 mph 8 mph 70% 0 in 304 W/m2
08:10 53.2 °F 44.1 °F 29.7 in NW 2.9 mph 5 mph 71% 0 in 320 W/m2
08:15 53.8 °F 43.9 °F 29.7 in West 2.9 mph 4 mph 69% 0 in 330 W/m2
08:20 54 °F 43.3 °F 29.7 in SW 2.9 mph 7 mph 67% 0 in 346 W/m2
08:25 54.1 °F 43.3 °F 29.7 in WSW 4.9 mph 6 mph 67% 0 in 362 W/m2
08:30 54.1 °F 43.3 °F 29.7 in SW 4 mph 8 mph 67% 0 in 374 W/m2
08:35 54.1 °F 43.9 °F 29.7 in WNW 2 mph 8 mph 68% 0 in 390 W/m2
08:40 54.5 °F 44.2 °F 29.7 in WNW 2.9 mph 6 mph 68% 0 in 403 W/m2
08:45 54.9 °F 44.4 °F 29.7 in NNW 2.9 mph 9 mph 68% 0 in 418 W/m2
08:50 55 °F 44.6 °F 29.7 in West 2.9 mph 5 mph 68% 0 in 429 W/m2
08:56 55.2 °F 45.1 °F 29.7 in NW 0.9 mph 9 mph 69% 0 in 445 W/m2
09:01 55.6 °F 45.1 °F 29.7 in WNW 8.1 mph 12 mph 68% 0 in 461 W/m2
09:06 55.2 °F 45.1 °F 29.7 in WNW 6.9 mph 8 mph 69% 0 in 473 W/m2
09:11 55.2 °F 45.1 °F 29.7 in WNW 8.9 mph 10 mph 69% 0 in 483 W/m2
09:16 55.2 °F 45.7 °F 29.7 in NW 0.9 mph 9 mph 70% 0 in 489 W/m2
09:21 55.8 °F 45.7 °F 29.7 in SW 2 mph 10 mph 69% 0 in 504 W/m2
09:26 55.9 °F 45.9 °F 29.7 in ENE 2 mph 5 mph 69% 0 in 526 W/m2
09:31 56.5 °F 46 °F 29.7 in West 6.9 mph 10 mph 68% 0 in 540 W/m2
09:36 56.5 °F 45.3 °F 29.7 in WNW 4 mph 9 mph 66% 0 in 557 W/m2
09:41 56.7 °F 46.2 °F 29.7 in WNW 2.9 mph 7 mph 68% 0 in 578 W/m2
09:46 57.2 °F 46.8 °F 29.7 in West 6.9 mph 8 mph 68% 0 in 617 W/m2
09:51 57.4 °F 46 °F 29.7 in WNW 2 mph 10 mph 66% 0 in 628 W/m2
09:56 57.6 °F 47.5 °F 29.7 in West 10.1 mph 10 mph 69% 0 in 700 W/m2
10:01 57.9 °F 46.6 °F 29.8 in WNW 4.9 mph 11 mph 66% 0 in 791 W/m2
10:06 58.6 °F 47.3 °F 29.8 in West 6.9 mph 12 mph 66% 0 in 299 W/m2
10:11 57.9 °F 46.6 °F 29.8 in NW 2 mph 7 mph 66% 0 in 302 W/m2
10:17 57.6 °F 46.8 °F 29.8 in WNW 4 mph 8 mph 67% 0 in 413 W/m2
10:22 57.4 °F 46.6 °F 29.8 in WSW 2 mph 6 mph 67% 0 in 362 W/m2
10:27 57.7 °F 46.9 °F 29.8 in WNW 6.9 mph 8 mph 67% 0 in 916 W/m2
10:32 57.9 °F 46.9 °F 29.8 in West 8.1 mph 8 mph 67% 0 in 916 W/m2
10:37 58.1 °F 47.1 °F 29.8 in SW 4 mph 4 mph 67% 0 in 329 W/m2
10:42 58.3 °F 46.9 °F 29.8 in WSW 2.9 mph 7 mph 66% 0 in 359 W/m2
10:47 58.5 °F 47.5 °F 29.8 in ESE 0.9 mph 4 mph 67% 0 in 724 W/m2
10:52 58.6 °F 47.3 °F 29.8 in West 2.9 mph 7 mph 66% 0 in 455 W/m2
10:57 58.5 °F 47.1 °F 29.8 in South 2 mph 10 mph 66% 0 in 457 W/m2
11:02 58.6 °F 47.7 °F 29.8 in NW 4.9 mph 8 mph 67% 0 in 290 W/m2
11:07 59 °F 48.4 °F 29.8 in NW 4 mph 10 mph 68% 0 in 893 W/m2
11:12 59.5 °F 47.8 °F 29.8 in WSW 10.1 mph 10 mph 65% 0 in 865 W/m2
11:17 59.5 °F 48.2 °F 29.8 in NW 4.9 mph 9 mph 66% 0 in 309 W/m2
11:22 59 °F 47.7 °F 29.8 in West 4 mph 8 mph 66% 0 in 272 W/m2
11:27 58.8 °F 47.8 °F 29.8 in WNW 4 mph 7 mph 67% 0 in 236 W/m2
11:32 59.5 °F 48.6 °F 29.8 in West 0.9 mph 7 mph 67% 0 in 988 W/m2
11:37 60.3 °F 48.4 °F 29.8 in SSE 2 mph 7 mph 65% 0 in 990 W/m2
11:42 60.4 °F 48.2 °F 29.8 in NW 2 mph 7 mph 64% 0 in 297 W/m2
11:47 60.3 °F 48.4 °F 29.8 in NNW 4 mph 4 mph 65% 0 in 1125 W/m2
11:52 60.4 °F 47.8 °F 29.8 in NNW 2.9 mph 5 mph 63% 0 in 373 W/m2
11:57 60.4 °F 47.3 °F 29.8 in NNW 2 mph 8 mph 62% 0 in 359 W/m2
12:02 61 °F 48.4 °F 29.8 in WNW 2.9 mph 11 mph 63% 0 in 1093 W/m2
12:07 61 °F 48.7 °F 29.8 in WNW 2.9 mph 3 mph 64% 0 in 274 W/m2
12:12 60.8 °F 48.6 °F 29.8 in NW 2 mph 10 mph 64% 0 in 294 W/m2
12:17 61.2 °F 48.9 °F 29.8 in NW 4 mph 6 mph 64% 0 in 294 W/m2
12:22 61.5 °F 48.4 °F 29.8 in NW 4 mph 7 mph 62% 0 in 926 W/m2
12:27 61.7 °F 47.3 °F 29.8 in NW 8.9 mph 12 mph 59% 0 in 1039 W/m2
12:32 61.9 °F 48.7 °F 29.8 in SSW 8.9 mph 9 mph 62% 0 in 323 W/m2
12:37 61.3 °F 48.6 °F 29.8 in WNW 4.9 mph 7 mph 63% 0 in 394 W/m2
12:42 61.2 °F 48 °F 29.8 in NW 6 mph 9 mph 62% 0 in 1097 W/m2
12:47 60.8 °F 47.7 °F 29.8 in WSW 4 mph 4 mph 62% 0 in 213 W/m2
12:52 60.4 °F 47.8 °F 29.8 in WNW 2 mph 8 mph 63% 0 in 381 W/m2
12:57 61.2 °F 48.9 °F 29.8 in WSW 8.1 mph 8 mph 64% 0 in 1129 W/m2
13:02 61 °F 47.5 °F 29.8 in WNW 8.1 mph 11 mph 61% 0 in 190 W/m2
13:07 60.4 °F 47.8 °F 29.8 in WSW 4 mph 14 mph 63% 0 in 149 W/m2
13:12 59.9 °F 47.7 °F 29.8 in West 6.9 mph 9 mph 64% 0 in 197 W/m2
13:17 59.7 °F 48.4 °F 29.8 in NW 2.9 mph 12 mph 66% 0 in 265 W/m2
13:23 59.5 °F 47.8 °F 29.8 in West 6 mph 7 mph 65% 0 in 320 W/m2
13:28 59.9 °F 48.6 °F 29.8 in NNW 4 mph 12 mph 66% 0 in 360 W/m2
13:33 60.3 °F 48.9 °F 29.8 in WNW 2.9 mph 6 mph 66% 0 in 355 W/m2
13:38 60.3 °F 47.7 °F 29.8 in West 2.9 mph 10 mph 63% 0 in 276 W/m2
13:43 60.3 °F 47.1 °F 29.8 in West 2.9 mph 8 mph 62% 0 in 292 W/m2
13:48 60.4 °F 47.3 °F 29.8 in WNW 2.9 mph 8 mph 62% 0 in 274 W/m2
13:53 60.4 °F 48.2 °F 29.8 in WSW 8.1 mph 8 mph 64% 0 in 276 W/m2
13:58 60.1 °F 48.2 °F 29.8 in WNW 4 mph 6 mph 65% 0 in 332 W/m2
14:03 60.3 °F 48.4 °F 29.8 in NW 2 mph 6 mph 65% 0 in 378 W/m2
14:08 60.4 °F 48.6 °F 29.8 in WNW 4 mph 6 mph 65% 0 in 415 W/m2
14:13 61 °F 47.8 °F 29.8 in WNW 4 mph 8 mph 62% 0 in 468 W/m2
14:18 61.2 °F 47.7 °F 29.8 in WNW 6 mph 7 mph 61% 0 in 374 W/m2
14:23 61 °F 47.8 °F 29.8 in WSW 4 mph 6 mph 62% 0 in 417 W/m2
14:28 61.2 °F 47.1 °F 29.8 in WSW 6.9 mph 8 mph 60% 0 in 462 W/m2
14:33 61.3 °F 47.3 °F 29.8 in WSW 2.9 mph 5 mph 60% 0 in 605 W/m2
14:38 62.2 °F 48.2 °F 29.8 in WSW 0.9 mph 7 mph 60% 0 in 540 W/m2
14:43 63.7 °F 49.1 °F 29.8 in WNW 4 mph 13 mph 59% 0 in 1020 W/m2
14:48 63.7 °F 48.6 °F 29.8 in WNW 2.9 mph 7 mph 58% 0 in 394 W/m2
14:53 63.1 °F 49.1 °F 29.8 in Calm   9 mph 60% 0 in 478 W/m2
14:58 62.4 °F 48.4 °F 29.8 in West 8.1 mph 9 mph 60% 0 in 223 W/m2
15:03 61.7 °F 48.2 °F 29.8 in West 6 mph 6 mph 61% 0 in 237 W/m2
15:08 61.3 °F 48.2 °F 29.8 in WSW 2.9 mph 11 mph 62% 0 in 253 W/m2
15:13 61 °F 47.8 °F 29.8 in SW 4 mph 12 mph 62% 0 in 237 W/m2
15:18 60.8 °F 48.6 °F 29.8 in West 2 mph 7 mph 64% 0 in 211 W/m2
15:23 60.4 °F 49.1 °F 29.8 in WNW 8.1 mph 11 mph 66% 0 in 200 W/m2
15:28 60.3 °F 48.9 °F 29.8 in NW 2.9 mph 4 mph 66% 0 in 200 W/m2
15:33 60.3 °F 48.4 °F 29.8 in WSW 8.9 mph 10 mph 65% 0 in 202 W/m2
15:38 59.7 °F 47.5 °F 29.8 in West 4 mph 9 mph 64% 0 in 209 W/m2
15:43 59.5 °F 47.8 °F 29.8 in West 4 mph 10 mph 65% 0 in 229 W/m2
15:48 59.7 °F 48.4 °F 29.8 in West 2.9 mph 4 mph 66% 0 in 253 W/m2
15:53 60.1 °F 47.8 °F 29.8 in WNW 4 mph 9 mph 64% 0 in 274 W/m2
15:58 60.3 °F 46.8 °F 29.8 in WNW 4.9 mph 8 mph 61% 0 in 313 W/m2
16:03 60.6 °F 46.6 °F 29.8 in West 2.9 mph 9 mph 60% 0 in 327 W/m2
16:08 61 °F 47.5 °F 29.8 in West 2 mph 4 mph 61% 0 in 332 W/m2
16:13 61.3 °F 47.8 °F 29.8 in WSW 4 mph 6 mph 61% 0 in 359 W/m2
16:18 61.7 °F 48.2 °F 29.8 in NW 8.9 mph 9 mph 61% 0 in 425 W/m2
16:23 61.9 °F 48.2 °F 29.8 in WSW 4 mph 4 mph 61% 0 in 452 W/m2
16:28 62.2 °F 47.7 °F 29.8 in West 2 mph 7 mph 59% 0 in 510 W/m2
16:33 62.6 °F 48.6 °F 29.8 in West 2 mph 3 mph 60% 0 in 454 W/m2
16:38 63.1 °F 48.6 °F 29.8 in South 2.9 mph 6 mph 59% 0 in 519 W/m2
16:43 63.9 °F 49.6 °F 29.8 in NW 6 mph 7 mph 60% 0 in 438 W/m2
16:48 64 °F 48.9 °F 29.8 in West 2.9 mph 4 mph 58% 0 in 538 W/m2
16:53 64 °F 48.6 °F 29.8 in NW 2 mph 6 mph 57% 0 in 612 W/m2
16:58 64.2 °F 48.7 °F 29.8 in NW 4.9 mph 11 mph 57% 0 in 404 W/m2
17:03 64 °F 48.6 °F 29.8 in West 2.9 mph 7 mph 57% 0 in 394 W/m2
17:08 64.2 °F 49.1 °F 29.8 in NNW 4 mph 11 mph 58% 0 in 638 W/m2
17:13 64.9 °F 48.9 °F 29.8 in WSW 2.9 mph 10 mph 56% 0 in 738 W/m2
17:18 64.8 °F 48.2 °F 29.8 in WSW 6 mph 6 mph 55% 0 in 232 W/m2
17:23 64.6 °F 48.9 °F 29.8 in West 2 mph 8 mph 57% 0 in 480 W/m2
17:28 64.9 °F 48.9 °F 29.8 in West 4 mph 6 mph 56% 0 in 765 W/m2
17:33 65.7 °F 49.1 °F 29.8 in NW 2 mph 10 mph 55% 0 in 784 W/m2
17:38 65.8 °F 49.3 °F 29.8 in WSW 0.9 mph 4 mph 55% 0 in 570 W/m2
17:43 66.2 °F 49.1 °F 29.8 in West 6.9 mph 10 mph 54% 0 in 689 W/m2
17:48 65.7 °F 49.1 °F 29.8 in WNW 6.9 mph 7 mph 55% 0 in 657 W/m2
17:53 65.8 °F 48.7 °F 29.8 in NNW 6 mph 7 mph 54% 0 in 619 W/m2
17:58 65.8 °F 48.2 °F 29.8 in SW 4.9 mph 6 mph 53% 0 in 606 W/m2
18:03 65.5 °F 46.9 °F 29.8 in West 4 mph 8 mph 51% 0 in 584 W/m2
18:08 65.3 °F 47.7 °F 29.8 in West 8.1 mph 8 mph 53% 0 in 578 W/m2
18:13 65.1 °F 47.5 °F 29.8 in West 8.1 mph 9 mph 53% 0 in 589 W/m2
18:18 65.1 °F 47.5 °F 29.8 in WNW 8.1 mph 10 mph 53% 0 in 541 W/m2
18:23 64.9 °F 47.5 °F 29.8 in NW 2.9 mph 4 mph 53% 0 in 316 W/m2
18:28 65.1 °F 48 °F 29.8 in NNW 4 mph 5 mph 54% 0 in 297 W/m2
18:34 64.9 °F 47.5 °F 29.8 in WNW 2.9 mph 6 mph 53% 0 in 329 W/m2
18:39 65.1 °F 47.1 °F 29.8 in Calm   4 mph 52% 0 in 378 W/m2
18:44 64.8 °F 47.3 °F 29.8 in WNW 0.9 mph 1 mph 53% 0 in 174 W/m2
18:49 65.1 °F 48 °F 29.8 in WNW 0.9 mph 2 mph 54% 0 in 302 W/m2
18:54 65.7 °F 48 °F 29.8 in WNW 4 mph 7 mph 53% 0 in 279 W/m2
18:59 65.8 °F 47.1 °F 29.8 in West 2.9 mph 7 mph 51% 0 in 272 W/m2
19:04 65.5 °F 47.5 °F 29.8 in NW 0.9 mph 3 mph 52% 0 in 295 W/m2
19:09 65.5 °F 47.8 °F 29.8 in NW 2 mph 7 mph 53% 0 in 320 W/m2
19:14 65.3 °F 48.2 °F 29.8 in West 6 mph 6 mph 54% 0 in 329 W/m2
19:19 65.3 °F 48.2 °F 29.8 in West 0.9 mph 4 mph 54% 0 in 322 W/m2
19:24 65.5 °F 48.4 °F 29.8 in East 2 mph 3 mph 54% 0 in 292 W/m2
19:29 64.9 °F 48.4 °F 29.8 in WSW 2.9 mph 5 mph 55% 0 in 76 W/m2
19:34 64 °F 47.5 °F 29.8 in NW 2 mph 4 mph 55% 0 in 53 W/m2
19:39 63.3 °F 48.4 °F 29.8 in WNW 2 mph 2 mph 58% 0 in 42 W/m2
19:44 62.8 °F 47.8 °F 29.8 in West 0.9 mph 3 mph 58% 0 in 40 W/m2
19:49 62.2 °F 47.7 °F 29.8 in West 2 mph 3 mph 59% 0 in 39 W/m2
19:54 61.9 °F 47.8 °F 29.8 in West 0.9 mph 4 mph 60% 0 in 42 W/m2
19:59 61.5 °F 48 °F 29.8 in West 2 mph 3 mph 61% 0 in 42 W/m2
20:04 61.5 °F 48.7 °F 29.8 in West 0.9 mph 2 mph 63% 0 in 42 W/m2
20:09 61.3 °F 49.1 °F 29.8 in Calm   1 mph 64% 0 in 44 W/m2
20:14 61.3 °F 49.5 °F 29.8 in West 0.9 mph 2 mph 65% 0 in 44 W/m2
20:19 61.2 °F 50.9 °F 29.8 in West 0.9 mph 2 mph 69% 0 in 42 W/m2
20:24 61 °F 51.4 °F 29.8 in SSW 2 mph 3 mph 71% 0 in 42 W/m2
20:29 60.3 °F 52 °F 29.8 in SW 2 mph 2 mph 74% 0 in 40 W/m2
20:34 59.5 °F 51.3 °F 29.8 in SW 2 mph 3 mph 74% 0 in 35 W/m2
20:39 59.4 °F 52.2 °F 29.8 in WSW 0.9 mph 1 mph 77% 0 in 32 W/m2
20:44 59.2 °F 51.3 °F 29.8 in SW 2 mph 3 mph 75% 0 in 21 W/m2
20:49 58.8 °F 52 °F 29.8 in WSW 0.9 mph 3 mph 78% 0 in 18 W/m2
20:54 58.6 °F 51.4 °F 29.8 in WSW 2 mph 3 mph 77% 0 in 19 W/m2
20:59 58.6 °F 51.1 °F 29.8 in SW 0.9 mph 2 mph 76% 0 in 21 W/m2
21:04 58.6 °F 51.1 °F 29.8 in SW 0.9 mph 2 mph 76% 0 in 28 W/m2
21:09 58.6 °F 51.4 °F 29.8 in SW 0.9 mph 2 mph 77% 0 in 18 W/m2
21:14 58.6 °F 51.8 °F 29.8 in SW 2 mph 2 mph 78% 0 in 14 W/m2
21:19 58.3 °F 51.8 °F 29.8 in SW 0.9 mph 2 mph 79% 0 in 14 W/m2
21:24 57.9 °F 51.4 °F 29.8 in SW 0.9 mph 1 mph 79% 0 in 11 W/m2
21:29 57.6 °F 51.1 °F 29.8 in SW 0.9 mph 2 mph 79% 0 in 7 W/m2
21:34 57 °F 50.5 °F 29.8 in SW 0.9 mph 2 mph 79% 0 in 5 W/m2
21:39 56.5 °F 50 °F 29.8 in SW 0.9 mph 2 mph 79% 0 in 0 W/m2
21:44 55.9 °F 49.8 °F 29.8 in SW 0.9 mph 2 mph 80% 0 in 0 W/m2
21:49 55.6 °F 49.5 °F 29.8 in SW 0.9 mph 2 mph 80% 0 in 0 W/m2
21:54 55.2 °F 49.1 °F 29.8 in SW 0.9 mph 2 mph 80% 0 in 0 W/m2
21:59 54.9 °F 48.7 °F 29.8 in SW 0.9 mph 2 mph 80% 0 in 0 W/m2
22:04 54.7 °F 48.9 °F 29.9 in SW 0.9 mph 2 mph 81% 0 in 0 W/m2
22:09 54.3 °F 48.6 °F 29.9 in SW 0.9 mph 1 mph 81% 0 in 0 W/m2
22:14 54.1 °F 48.7 °F 29.9 in SW 0.9 mph 1 mph 82% 0 in 0 W/m2
22:19 54 °F 48.2 °F 29.9 in Calm     81% 0 in 0 W/m2
22:24 53.8 °F 48.4 °F 29.9 in Calm     82% 0 in 0 W/m2
22:29 53.6 °F 48.2 °F 29.9 in Calm     82% 0 in 0 W/m2
22:34 53.2 °F 47.8 °F 29.9 in SW 0.9 mph 1 mph 82% 0 in 0 W/m2
22:39 53.1 °F 47.7 °F 29.9 in Calm     82% 0 in 0 W/m2
22:44 52.9 °F 47.5 °F 29.9 in Calm     82% 0 in 0 W/m2
22:49 52.5 °F 47.1 °F 29.9 in Calm     82% 0 in 0 W/m2
22:54 52.3 °F 46.9 °F 29.9 in Calm     82% 0 in 0 W/m2
22:59 52.2 °F 47.1 °F 29.9 in Calm     83% 0 in 0 W/m2
23:04 51.8 °F 46.8 °F 29.9 in Calm     83% 0 in 0 W/m2
23:09 51.6 °F 46.9 °F 29.9 in Calm     84% 0 in 0 W/m2
23:14 51.4 °F 47.1 °F 29.9 in Calm   1 mph 85% 0 in 0 W/m2
23:19 51.4 °F 47.5 °F 29.9 in Calm     86% 0 in 0 W/m2
23:24 51.6 °F 47.5 °F 29.9 in West 0.9 mph 3 mph 86% 0 in 0 W/m2
23:29 52.5 °F 47.8 °F 29.9 in WNW 2 mph 3 mph 84% 0 in 0 W/m2
23:34 52.9 °F 47.8 °F 29.9 in West 2 mph 3 mph 83% 0 in 0 W/m2
23:39 52.9 °F 47.8 °F 29.9 in West 0.9 mph 2 mph 83% 0 in 0 W/m2
23:44 52.5 °F 47.8 °F 29.9 in West 0.9 mph 2 mph 84% 0 in 0 W/m2
23:49 52.3 °F 47.7 °F 29.9 in West 0.9 mph 2 mph 84% 0 in 0 W/m2
23:54 52.2 °F 47.5 °F 29.9 in Calm     84% 0 in 0 W/m2
23:59 52 °F 47.7 °F 29.9 in Calm   2 mph 85% 0 in 0 W/m2
Juneau County Weather
Compliments of Weather Underground - 4 mb